User: anonymous   Login
Location: Unspecified
(0.0000°N, 0.0000°E)
Time: 06:11:34
(UTC+00:00)
Language:

PicSat - Orbit

View from above orbital plane
View from above orbital plane
View from above satellite
View from above satellite

Ground track
Ground track

The orbit data is extracted from the following two-line orbital elements,

1 43131U 18004W   20190.77172914  .00001215  00000-0  51039-4 0  9996
2 43131  97.4480 262.6774 0008493 346.9878  13.1139 15.25347750138345
Epoch (UTC): 08 July 2020 18:31:17
Eccentricity: 0.0008493
inclination: 97.4480°
perigee height: 484 km
apogee height: 495 km
right ascension of ascending node: 262.6774°
argument of perigee: 346.9878°
revolutions per day: 15.25347750
mean anomaly at epoch: 13.1139°
orbit number at epoch: 13834

The dashed part of the orbit path shows where the satellite is in the earth's shadow,  

DLR